Dewpoint
56 58 57 55 55 54 53 55 55 51 51 49 50 48 48 48 47 48 46 47 47 46 46 47 49 48 50 51 52 53 54 55 57 57 57 58 59 62
48 49 49 50 50 50 50 48 49 51 48 48 47 45 46 44 44 44 43 47 45 45 44 44 46 47 48 48 48 49 51 52 53 55 56 57 58 61
41 41 41 41 44 45 46 44 43 45 44 45 43 42 42 41 40 41 43 42 42 43 43 42 43 44 44 45 44 45 47 48 49 50 52 53 56 59
36 36 35 37 36 36 36 35 36 37 41 39 40 39 39 39 39 39 37 36 37 40 40 40 41 42 43 43 44 45 45 44 44 45 46 48 50 53
35 33 32 31 30 29 29 31 32 33 36 37 37 39 38 36 37 37 35 36 34 37 37 38 40 40 41 43 44 43 43 42 41 40 41 42 44 47
33 32 31 29 28 27 25 26 27 30 32 33 34 34 34 35 35 33 33 34 33 32 35 37 38 38 39 44 43 42 41 41 41 40 40 40 40 42
32 30 30 30 30 30 28 28 27 27 29 31 31 32 32 32 31 32 31 32 32 33 35 32 31 32 34 37 40 43 41 41 41 41 41 40 39 40
29 29 28 28 28 28 27 30 29 25 24 26 26 24 24 24 25 25 27 28 27 33 29 29 31 31 33 35 37 40 41 41 41 41 40 40 39 39
24 23 23 25 26 25 25 28 26 25 26 23 23 23 24 26 26 26 25 25 25 27 28 29 32 31 34 34 38 41 41 41 40 40 40 40 39 39
25 23 23 24 25 25 25 23 22 22 23 24 26 26 26 27 28 27 28 27 27 29 30 28 30 31 32 35 36 38 39 40 40 40 40 40 39 39
23 24 24 24 25 25 23 22 22 23 24 26 26 26 27 28 28 27 26 25 24 27 29 31 29 31 32 33 35 39 39 40 40 39 39 39 39 40
23 24 26 25 25 25 23 23 22 22 24 24 24 24 26 26 25 26 25 23 23 23 28 26 26 32 30 28 32 33 35 38 38 37 38 39 39 40
22 23 26 24 24 24 25 23 23 24 24 23 23 23 23 23 24 25 26 26 26 25 28 29 29 29 28 29 32 31 32 33 37 38 38 39 39 39
22 25 23 23 23 23 23 22 23 24 23 22 22 20 21 22 23 24 25 26 27 27 28 29 29 30 29 28 28 32 30 32 33 34 37 39 39 38
23 22 21 21 22 22 21 21 22 22 20 20 19 19 21 23 22 23 24 24 24 25 25 28 28 30 31 31 30 29 30 32 32 32 33 34 36 39
21 21 19 21 18 18 19 20 20 20 19 19 18 21 21 20 21 22 21 21 21 22 24 26 27 28 29 31 32 30 31 30 32 33 34 35 38 39
17 17 17 16 15 16 16 16 17 17 17 17 18 17 18 19 19 20 19 19 19 19 20 22 24 26 27 28 29 31 31 31 33 34 33 32 35 37
15 14 13 14 13 14 14 14 15 15 16 16 16 16 16 17 16 17 18 18 17 17 18 20 21 22 23 25 31 31 32 32 33 34 35 33 33 36
13 13 12 12 13 13 14 14 13 14 15 14 14 15 16 16 15 15 16 16 15 16 17 18 19 21 20 20 25 34 32 33 33 33 34 34 33 35
12 12 12 12 13 12 13 13 12 12 11 11 12 13 13 14 13 13 13 13 13 14 14 16 19 22 22 22 25 26 32 33 32 32 32 33 33 33
11 10 11 12 12 12 12 11 10 10 10 10 11 12 12 13 11 11 11 11 12 14 14 15 18 22 25 27 25 30 32 34 34 32 31 30 27 26
10 10 11 11 12 12 11 10 10 10 10 10 11 12 11 11 10 10 11 11 12 14 16 17 20 23 26 28 29 30 32 29 32 32 32 31 28 24
10 11 11 11 12 12 11 10 10 10 11 10 9 10 10 9 10 11 12 13 14 14 16 17 20 24 27 31 31 30 31 28 28 28 28 30 30 30
Lifted_Index
-0 -1 -2 -1 -1 -1 -0 0 0 0 1 2 4 6 7 7 7 7 7 9 10 10 10 11 12 13 13 12 10 8 7 6 5 4 4 3 3 2
2 2 2 2 2 2 1 1 1 1 1 3 5 7 8 8 9 9 10 11 12 12 12 12 13 14 14 14 12 10 8 6 5 5 4 4 3 2
7 6 6 6 6 7 6 4 3 2 3 4 7 9 10 11 12 12 13 14 14 13 13 14 14 14 14 15 14 13 11 8 7 6 5 4 3 2
11 10 10 10 10 11 11 8 7 7 7 8 10 12 14 14 14 14 14 15 15 15 15 15 15 15 14 15 15 14 13 12 10 8 6 5 4 3
14 14 14 14 14 15 14 13 12 12 13 13 14 15 16 17 16 15 15 16 17 17 17 17 16 15 15 15 15 15 14 14 13 11 9 7 5 3
16 16 17 18 18 17 16 16 16 16 16 16 16 16 16 17 17 16 16 16 17 18 19 18 17 16 16 15 15 15 15 15 15 14 13 10 7 5
16 17 19 20 20 19 18 18 18 17 16 16 16 16 16 16 17 16 16 16 17 19 19 19 19 18 17 17 17 16 15 15 15 15 15 14 11 9
17 19 20 22 22 21 21 22 21 20 19 18 17 17 17 18 18 17 17 16 17 20 20 20 20 21 20 20 19 18 17 16 16 16 16 16 14 13
20 21 22 23 23 23 24 24 24 23 22 22 21 20 20 21 21 20 20 20 20 21 21 20 21 22 22 21 20 19 18 17 16 16 17 17 16 15
23 23 23 24 24 24 24 24 24 24 24 24 24 24 24 24 24 24 23 23 23 23 22 21 21 22 22 21 20 19 19 18 17 16 17 17 16 16
24 24 24 24 24 24 24 24 23 24 24 24 25 25 25 25 25 25 24 23 23 23 23 23 22 22 21 21 20 19 18 18 17 17 17 17 17 16
24 24 24 24 24 24 23 23 23 23 23 23 24 24 24 24 24 24 24 23 23 23 24 24 24 23 22 21 20 19 19 18 18 17 17 17 17 17
24 24 24 24 24 24 23 23 23 23 23 23 23 23 23 23 23 24 24 24 24 24 24 24 24 24 23 22 22 21 20 20 19 19 19 18 18 17
24 24 24 24 24 24 23 23 23 23 23 22 22 22 22 23 23 23 24 24 24 24 24 24 24 24 23 23 22 22 22 21 21 21 20 19 18 18
24 24 24 24 24 24 24 24 24 23 23 23 22 23 23 23 23 23 23 23 23 23 23 23 23 23 23 22 22 21 21 21 21 21 20 19 18 17
24 24 24 24 24 24 24 24 24 24 23 23 22 23 23 23 23 23 22 22 21 20 20 21 21 21 20 20 20 19 19 19 19 18 18 18 17 16
23 23 23 24 24 24 24 23 23 23 22 22 22 21 21 21 21 20 20 19 18 17 16 16 17 17 16 16 16 15 15 15 15 15 15 15 15 14
22 22 22 22 23 22 22 22 22 21 21 20 19 18 18 17 17 16 15 14 13 12 12 12 12 11 11 11 11 11 11 11 11 11 11 11 11 12
21 21 21 21 21 21 20 20 19 18 17 16 15 14 13 13 12 11 10 10 9 9 8 8 8 8 7 7 7 7 8 8 8 7 8 8 8 8
20 20 20 20 19 18 17 16 14 13 12 12 11 10 10 9 8 8 7 7 6 6 6 6 6 6 6 5 5 5 6 6 6 6 5 5 6 6
19 18 17 17 15 14 12 11 10 9 9 8 8 8 8 7 7 7 6 6 6 5 5 5 5 5 5 5 5 5 5 5 5 4 4 4 4 4
16 15 14 13 12 11 10 9 8 8 8 7 7 7 7 7 7 7 6 6 6 6 6 6 6 6 5 5 5 4 4 5 4 4 4 4 5 5
14 13 12 12 11 10 9 8 8 8 8 8 7 7 7 7 7 7 7 6 6 6 6 6 6 6 6 5 5 5 5 5 5 5 5 5 5 6